Regional Weather Roundup
Issued by NWS Goodland, KS

Home | Current Version | Previous Version | Text Only | Print | Product List | Glossary Off
Versions: 1 2 3 4 5 6 7 8 9 10 11 12 13 14 15 16 17 18 19 20 21 22 23 24 25 26 27 28 29 30 31 32 33 34 35 36 37 38 39 40 41 42 43 44 45 46 47 48 49 50

000
ASUS43 KGLD 292308
RWRGLD

GOODLAND FORECAST AREA HOURLY WEATHER ROUNDUP
NATIONAL WEATHER SERVICE GOODLAND KS
500 PM MDT MON JUN 29 2015

...OFFICIAL OBSERVATIONS...

CITY           SKY/WX    TMP DP  RH WIND       PRES   REMARKS
GOODLAND KS    PTSUNNY   89  50  26 E6        30.08F
HILL CITY KS   SUNNY     96  52  22 N8        29.98F
IMPERIAL NEB   SUNNY     89  53  29 CALM      30.06F
MCCOOK NEB     SUNNY     93  56  28 N7        30.00F
AKRON CO       PTSUNNY   83  53  35 E7        30.16S
BURLINGTON CO  MOSUNNY   87  48  25 VRB3      30.12F
LIMON CO       MOSUNNY   83  55  38 VRB5      30.21F
$$

...UNOFFICIAL OBSERVATIONS...

CITY           SKY/WX    TMP DP  RH WIND       PRES   REMARKS
COLBY KS       MOSUNNY   91  55  29 W15       30.06F
GOVE KS          N/A     89  32  13 MISG        N/A
NORTON KS      MOSUNNY   93  46  20 N10       29.98F
SHARON SPRINGS   N/A     89  53  29 E7G20       N/A
KIT CARSON CO    N/A     88  53  30 MISG        N/A
$$


USA.gov is the U.S. government's official web portal to all federal, state and local government web resources and services.